Time,TemperatureF,DewpointF,PressureIn,WindDirection,WindDirectionDegrees,WindSpeedMPH,WindSpeedGustMPH,Humidity,HourlyPrecipIn,Conditions,Clouds,dailyrainin,SoftwareType,DateUTC
2013-05-18 00:02:00,48.6,27.5,29.99,NNE,22,0.0,0.0,44,0.00,,,0.00,WUHU21623XXSP,2013-05-18 07:02:00,
2013-05-18 00:07:00,48.6,27.5,29.99,NNE,22,0.0,0.0,44,0.00,,,0.00,WUHU21623XXSP,2013-05-18 07:07:00,
2013-05-18 00:12:00,48.7,27.6,29.99,NNE,22,0.0,0.0,44,0.00,,,0.00,WUHU21623XXSP,2013-05-18 07:12:00,
2013-05-18 00:17:00,48.7,27.6,29.98,NNE,22,0.0,0.0,44,0.00,,,0.00,WUHU21623XXSP,2013-05-18 07:17:00,
2013-05-18 00:22:00,48.7,27.6,29.98,NNE,22,0.0,0.0,44,0.00,,,0.00,WUHU21623XXSP,2013-05-18 07:22:00,
2013-05-18 00:27:00,48.7,27.6,29.99,NNE,22,0.0,0.0,44,0.00,,,0.00,WUHU21623XXSP,2013-05-18 07:27:00,
2013-05-18 00:32:00,48.7,27.6,29.98,NNE,22,0.0,0.0,44,0.00,,,0.00,WUHU21623XXSP,2013-05-18 07:32:00,
2013-05-18 00:37:00,48.7,27.6,29.99,NNE,22,0.0,0.0,44,0.00,,,0.00,WUHU21623XXSP,2013-05-18 07:37:00,
2013-05-18 00:42:00,48.7,27.6,29.99,NNE,22,0.0,0.0,44,0.00,,,0.00,WUHU21623XXSP,2013-05-18 07:42:00,
2013-05-18 00:47:00,48.7,27.6,29.99,NNE,22,0.0,0.0,44,0.00,,,0.00,WUHU21623XXSP,2013-05-18 07:47:00,
2013-05-18 00:52:00,48.7,27.6,29.98,NNE,22,0.0,0.0,44,0.00,,,0.00,WUHU21623XXSP,2013-05-18 07:52:00,
2013-05-18 00:57:00,48.7,27.6,29.99,NNE,22,0.0,0.0,44,0.00,,,0.00,WUHU21623XXSP,2013-05-18 07:57:00,
2013-05-18 01:02:00,48.7,27.6,29.99,NNE,22,0.0,0.0,44,0.00,,,0.00,WUHU21623XXSP,2013-05-18 08:02:00,
2013-05-18 01:07:00,48.7,27.6,29.98,NNE,22,0.0,0.0,44,0.00,,,0.00,WUHU21623XXSP,2013-05-18 08:07:00,
2013-05-18 01:12:00,48.6,28.0,29.99,NNE,22,0.0,0.0,45,0.00,,,0.00,WUHU21623XXSP,2013-05-18 08:12:00,
2013-05-18 01:17:00,48.4,27.3,29.98,NNE,22,0.0,0.0,44,0.00,,,0.00,WUHU21623XXSP,2013-05-18 08:17:00,
2013-05-18 01:22:00,48.0,27.1,29.98,NNE,22,0.0,0.0,44,0.00,,,0.00,WUHU21623XXSP,2013-05-18 08:22:00,
2013-05-18 01:27:00,48.0,27.0,29.98,NNE,22,0.0,0.0,44,0.00,,,0.00,WUHU21623XXSP,2013-05-18 08:27:00,
2013-05-18 01:32:00,48.0,27.0,29.98,NNE,22,0.0,0.0,44,0.00,,,0.00,WUHU21623XXSP,2013-05-18 08:32:00,
2013-05-18 01:37:00,47.8,26.8,29.98,NNE,22,0.0,0.0,44,0.00,,,0.00,WUHU21623XXSP,2013-05-18 08:37:00,
2013-05-18 01:42:00,47.8,26.8,29.99,NNE,22,0.0,0.0,44,0.00,,,0.00,WUHU21623XXSP,2013-05-18 08:42:00,
2013-05-18 01:47:00,47.8,26.8,29.98,NNE,22,0.0,0.0,44,0.00,,,0.00,WUHU21623XXSP,2013-05-18 08:47:00,
2013-05-18 01:52:00,48.0,26.8,29.98,NNE,22,0.0,0.0,44,0.00,,,0.00,WUHU21623XXSP,2013-05-18 08:52:00,
2013-05-18 01:57:00,48.0,27.0,29.98,NNE,22,0.0,0.0,44,0.00,,,0.00,WUHU21623XXSP,2013-05-18 08:57:00,
2013-05-18 02:02:00,48.0,27.0,29.98,NNE,22,0.0,0.0,44,0.00,,,0.00,WUHU21623XXSP,2013-05-18 09:02:00,
2013-05-18 02:15:00,48.2,27.1,29.99,NNE,22,0.0,0.0,44,0.00,,,0.00,WUHU21623XXSP,2013-05-18 09:15:00,
2013-05-18 02:20:00,48.4,27.3,29.99,NNE,22,0.0,0.0,44,0.00,,,0.00,WUHU21623XXSP,2013-05-18 09:20:00,
2013-05-18 02:25:00,48.4,27.3,29.99,NNE,22,0.0,0.0,44,0.00,,,0.00,WUHU21623XXSP,2013-05-18 09:25:00,
2013-05-18 02:30:00,48.4,27.3,29.99,NNE,22,0.0,0.0,44,0.00,,,0.00,WUHU21623XXSP,2013-05-18 09:30:00,
2013-05-18 02:35:00,48.6,27.5,29.99,NNE,22,0.0,0.0,44,0.00,,,0.00,WUHU21623XXSP,2013-05-18 09:35:00,
2013-05-18 02:40:00,48.6,27.5,29.99,NNE,22,0.0,0.0,44,0.00,,,0.00,WUHU21623XXSP,2013-05-18 09:40:00,
2013-05-18 02:45:00,48.6,27.5,29.99,NNE,22,0.0,0.0,44,0.00,,,0.00,WUHU21623XXSP,2013-05-18 09:45:00,
2013-05-18 02:50:00,48.6,27.5,29.99,NNE,22,0.0,0.0,44,0.00,,,0.00,WUHU21623XXSP,2013-05-18 09:50:00,
2013-05-18 02:55:00,48.6,27.5,29.99,NNE,22,0.0,0.0,44,0.00,,,0.00,WUHU21623XXSP,2013-05-18 09:55:00,
2013-05-18 03:00:00,48.6,27.5,29.99,NNE,22,0.0,0.0,44,0.00,,,0.00,WUHU21623XXSP,2013-05-18 10:00:00,
2013-05-18 03:05:00,48.6,27.5,29.99,NNE,22,0.0,0.0,44,0.00,,,0.00,WUHU21623XXSP,2013-05-18 10:05:00,
2013-05-18 03:18:00,48.7,27.6,29.99,NNE,22,0.0,0.0,44,0.00,,,0.00,WUHU21623XXSP,2013-05-18 10:18:00,
2013-05-18 03:23:00,48.7,27.6,29.99,NNE,22,0.0,0.0,44,0.00,,,0.00,WUHU21623XXSP,2013-05-18 10:23:00,
2013-05-18 03:28:00,48.7,27.6,29.99,NNE,22,0.0,0.0,44,0.00,,,0.00,WUHU21623XXSP,2013-05-18 10:28:00,
2013-05-18 03:33:00,48.7,27.6,29.99,NNE,22,0.0,0.0,44,0.00,,,0.00,WUHU21623XXSP,2013-05-18 10:33:00,
2013-05-18 03:38:00,48.7,27.6,29.99,NNE,22,0.0,0.0,44,0.00,,,0.00,WUHU21623XXSP,2013-05-18 10:38:00,
2013-05-18 03:43:00,48.7,27.6,29.99,NNE,22,0.0,0.0,44,0.00,,,0.00,WUHU21623XXSP,2013-05-18 10:43:00,
2013-05-18 03:48:00,48.7,27.6,29.99,NNE,22,0.0,0.0,44,0.00,,,0.00,WUHU21623XXSP,2013-05-18 10:48:00,
2013-05-18 03:53:00,48.7,27.6,29.99,NNE,22,0.0,0.0,44,0.00,,,0.00,WUHU21623XXSP,2013-05-18 10:53:00,
2013-05-18 03:58:00,48.7,27.6,29.99,NNE,22,0.0,0.0,44,0.00,,,0.00,WUHU21623XXSP,2013-05-18 10:58:00,
2013-05-18 04:03:00,48.7,27.6,29.99,NNE,22,0.0,0.0,44,0.00,,,0.00,WUHU21623XXSP,2013-05-18 11:03:00,
2013-05-18 04:15:00,48.7,27.6,29.99,NNE,22,0.0,0.0,44,0.00,,,0.00,WUHU21623XXSP,2013-05-18 11:15:00,
2013-05-18 04:20:00,48.9,27.8,29.99,NNE,22,0.0,0.0,44,0.00,,,0.00,WUHU21623XXSP,2013-05-18 11:20:00,
2013-05-18 04:25:00,48.7,27.6,29.99,NNE,22,0.0,0.0,44,0.00,,,0.00,WUHU21623XXSP,2013-05-18 11:25:00,
2013-05-18 04:30:00,48.7,27.6,29.99,NNE,22,0.0,0.0,44,0.00,,,0.00,WUHU21623XXSP,2013-05-18 11:30:00,
2013-05-18 04:35:00,48.7,27.6,29.99,NNE,22,0.0,0.0,44,0.00,,,0.00,WUHU21623XXSP,2013-05-18 11:35:00,
2013-05-18 04:40:00,48.7,27.6,29.99,NNE,22,0.0,0.0,44,0.00,,,0.00,WUHU21623XXSP,2013-05-18 11:40:00,
2013-05-18 04:45:00,48.9,27.8,29.99,NNE,22,0.0,0.0,44,0.00,,,0.00,WUHU21623XXSP,2013-05-18 11:45:00,
2013-05-18 04:50:00,48.9,27.8,30.00,NNE,22,0.0,0.0,44,0.00,,,0.00,WUHU21623XXSP,2013-05-18 11:50:00,
2013-05-18 04:55:00,48.9,27.8,29.99,NNE,22,0.0,0.0,44,0.00,,,0.00,WUHU21623XXSP,2013-05-18 11:55:00,
2013-05-18 05:00:00,48.9,27.8,29.99,NNE,22,0.0,0.0,44,0.00,,,0.00,WUHU21623XXSP,2013-05-18 12:00:00,
2013-05-18 05:05:00,48.9,27.8,29.98,NNE,22,0.0,0.0,44,0.00,,,0.00,WUHU21623XXSP,2013-05-18 12:05:00,
2013-05-18 05:10:00,49.1,28.0,29.99,NNE,22,0.0,0.0,44,0.00,,,0.00,WUHU21623XXSP,2013-05-18 12:10:00,
2013-05-18 05:15:00,49.1,28.0,29.99,NNE,22,0.0,0.0,44,0.00,,,0.00,WUHU21623XXSP,2013-05-18 12:15:00,
2013-05-18 05:20:00,49.1,28.0,29.99,NNE,22,0.0,0.0,44,0.00,,,0.00,WUHU21623XXSP,2013-05-18 12:20:00,
2013-05-18 05:25:00,49.1,28.0,29.99,NNE,22,0.0,0.0,44,0.00,,,0.00,WUHU21623XXSP,2013-05-18 12:25:00,
2013-05-18 05:30:00,49.1,28.0,29.99,NW,315,0.0,0.0,44,0.00,,,0.00,WUHU21623XXSP,2013-05-18 12:30:00,
2013-05-18 05:35:00,48.9,27.8,29.99,NW,315,0.0,0.0,44,0.00,,,0.00,WUHU21623XXSP,2013-05-18 12:35:00,
2013-05-18 05:40:00,48.9,27.8,29.99,NW,315,0.0,0.0,44,0.00,,,0.00,WUHU21623XXSP,2013-05-18 12:40:00,
2013-05-18 05:45:00,48.9,27.8,29.99,NW,315,0.0,0.0,44,0.00,,,0.00,WUHU21623XXSP,2013-05-18 12:45:00,
2013-05-18 05:50:00,48.9,27.8,29.99,NW,315,0.0,0.0,44,0.00,,,0.00,WUHU21623XXSP,2013-05-18 12:50:00,
2013-05-18 05:55:00,48.9,27.8,29.99,NW,315,0.0,0.0,44,0.00,,,0.00,WUHU21623XXSP,2013-05-18 12:55:00,
2013-05-18 06:00:00,48.7,27.6,29.99,NW,315,0.0,0.0,44,0.00,,,0.00,WUHU21623XXSP,2013-05-18 13:00:00,
2013-05-18 06:05:00,48.7,27.6,30.00,NW,315,0.0,0.0,44,0.00,,,0.00,WUHU21623XXSP,2013-05-18 13:05:00,
2013-05-18 06:10:00,48.7,27.6,30.00,NW,315,0.0,0.0,44,0.00,,,0.00,WUHU21623XXSP,2013-05-18 13:10:00,
2013-05-18 06:15:00,48.6,27.6,29.99,NW,315,0.0,0.0,43,0.00,,,0.00,WUHU21623XXSP,2013-05-18 13:15:00,
2013-05-18 06:20:00,48.7,27.6,29.99,NW,315,0.0,0.0,44,0.00,,,0.00,WUHU21623XXSP,2013-05-18 13:20:00,
2013-05-18 06:25:00,48.7,27.6,30.00,NW,315,0.0,0.0,44,0.00,,,0.00,WUHU21623XXSP,2013-05-18 13:25:00,
2013-05-18 06:30:00,48.7,27.6,30.00,NW,315,0.0,0.0,44,0.02,,,0.02,WUHU21623XXSP,2013-05-18 13:30:00,
2013-05-18 06:35:00,48.9,27.8,30.00,NW,315,0.0,0.0,44,0.02,,,0.02,WUHU21623XXSP,2013-05-18 13:35:00,
2013-05-18 06:40:00,48.9,27.8,30.00,NW,315,0.0,0.0,44,0.02,,,0.02,WUHU21623XXSP,2013-05-18 13:40:00,
2013-05-18 06:45:00,49.3,27.6,30.00,NW,315,0.0,0.0,43,0.02,,,0.02,WUHU21623XXSP,2013-05-18 13:45:00,
2013-05-18 06:50:00,49.5,27.8,30.00,NW,315,0.0,0.0,43,0.02,,,0.02,WUHU21623XXSP,2013-05-18 13:50:00,
2013-05-18 06:55:00,49.8,28.1,30.00,NW,315,0.0,0.0,43,0.02,,,0.02,WUHU21623XXSP,2013-05-18 13:55:00,
2013-05-18 07:00:00,50.2,28.4,30.01,NW,315,0.0,0.0,43,0.02,,,0.02,WUHU21623XXSP,2013-05-18 14:00:00,
2013-05-18 07:05:00,50.2,28.4,30.01,NW,315,0.0,0.0,43,0.02,,,0.02,WUHU21623XXSP,2013-05-18 14:05:00,
2013-05-18 07:13:00,50.4,28.8,30.01,NW,315,0.0,0.0,43,0.02,,,0.02,WUHU21623XXSP,2013-05-18 14:13:00,
2013-05-18 07:18:00,50.5,28.8,30.01,NW,315,0.0,0.0,43,0.02,,,0.02,WUHU21623XXSP,2013-05-18 14:18:00,
2013-05-18 07:23:00,50.7,28.9,30.01,NW,315,0.0,0.0,43,0.02,,,0.02,WUHU21623XXSP,2013-05-18 14:23:00,
2013-05-18 07:28:00,50.7,28.9,30.01,WNW,292,0.0,0.0,43,0.00,,,0.02,WUHU21623XXSP,2013-05-18 14:28:00,
2013-05-18 07:33:00,51.1,29.2,30.01,WSW,247,0.0,0.0,43,0.00,,,0.02,WUHU21623XXSP,2013-05-18 14:33:00,
2013-05-18 07:38:00,50.9,29.2,30.01,WSW,247,0.0,0.0,43,0.00,,,0.02,WUHU21623XXSP,2013-05-18 14:38:00,
2013-05-18 07:43:00,50.9,29.1,30.01,WSW,247,0.0,0.0,43,0.00,,,0.02,WUHU21623XXSP,2013-05-18 14:43:00,
2013-05-18 07:48:00,50.9,29.1,30.01,WSW,247,0.0,0.0,43,0.00,,,0.02,WUHU21623XXSP,2013-05-18 14:48:00,
2013-05-18 07:53:00,51.3,29.2,30.01,WSW,247,0.0,0.0,43,0.00,,,0.02,WUHU21623XXSP,2013-05-18 14:53:00,
2013-05-18 07:58:00,51.3,29.4,30.01,WSW,247,0.0,0.0,43,0.00,,,0.02,WUHU21623XXSP,2013-05-18 14:58:00,
2013-05-18 08:03:00,51.4,29.0,30.01,WSW,247,0.0,0.0,42,0.00,,,0.02,WUHU21623XXSP,2013-05-18 15:03:00,
2013-05-18 08:08:00,51.8,29.2,30.01,WSW,247,0.0,0.0,42,0.00,,,0.02,WUHU21623XXSP,2013-05-18 15:08:00,
2013-05-18 08:13:00,52.0,29.3,30.01,WSW,247,0.0,0.0,42,0.00,,,0.02,WUHU21623XXSP,2013-05-18 15:13:00,
2013-05-18 08:18:00,52.2,29.7,30.01,SW,225,0.0,0.0,42,0.00,,,0.02,WUHU21623XXSP,2013-05-18 15:18:00,
2013-05-18 08:23:00,52.3,29.8,30.01,SSW,202,0.0,0.0,42,0.00,,,0.02,WUHU21623XXSP,2013-05-18 15:23:00,
2013-05-18 08:28:00,52.5,30.0,30.02,North,0,0.0,0.0,42,0.00,,,0.02,WUHU21623XXSP,2013-05-18 15:28:00,
2013-05-18 08:33:00,52.9,30.3,30.02,NW,315,0.0,0.0,42,0.00,,,0.02,WUHU21623XXSP,2013-05-18 15:33:00,
2013-05-18 08:38:00,53.2,30.6,30.02,SW,225,0.0,0.0,43,0.00,,,0.02,WUHU21623XXSP,2013-05-18 15:38:00,
2013-05-18 08:43:00,53.4,31.4,30.02,SSW,202,0.0,3.1,43,0.00,,,0.02,WUHU21623XXSP,2013-05-18 15:43:00,
2013-05-18 08:48:00,53.2,31.7,30.02,South,180,0.0,3.1,44,0.00,,,0.02,WUHU21623XXSP,2013-05-18 15:48:00,
2013-05-18 08:53:00,53.4,31.9,30.02,SSE,157,0.0,0.0,44,0.00,,,0.02,WUHU21623XXSP,2013-05-18 15:53:00,
2013-05-18 08:58:00,53.4,31.9,30.02,WSW,247,0.0,0.0,44,0.00,,,0.02,WUHU21623XXSP,2013-05-18 15:58:00,
2013-05-18 09:03:00,53.8,32.2,30.02,SW,225,0.0,0.0,44,0.00,,,0.02,WUHU21623XXSP,2013-05-18 16:03:00,
2013-05-18 09:08:00,54.3,32.6,30.02,SW,225,0.0,0.0,44,0.00,,,0.02,WUHU21623XXSP,2013-05-18 16:08:00,
2013-05-18 09:13:00,54.5,32.7,30.02,SW,225,0.0,0.0,45,0.00,,,0.02,WUHU21623XXSP,2013-05-18 16:13:00,
2013-05-18 09:18:00,54.3,33.3,30.02,SSE,157,3.6,3.6,45,0.00,,,0.02,WUHU21623XXSP,2013-05-18 16:18:00,
2013-05-18 09:23:00,54.5,34.0,30.02,ESE,112,0.0,3.6,46,0.00,,,0.02,WUHU21623XXSP,2013-05-18 16:23:00,
2013-05-18 09:28:00,54.3,34.4,30.02,East,90,0.0,0.0,47,0.00,,,0.02,WUHU21623XXSP,2013-05-18 16:28:00,
2013-05-18 09:33:00,54.3,34.4,30.03,ENE,67,0.0,0.0,47,0.00,,,0.02,WUHU21623XXSP,2013-05-18 16:33:00,
2013-05-18 09:38:00,54.3,33.8,30.02,SE,135,0.0,0.0,46,0.00,,,0.02,WUHU21623XXSP,2013-05-18 16:38:00,
2013-05-18 09:43:00,54.5,34.0,30.03,SSW,202,0.0,0.0,46,0.00,,,0.02,WUHU21623XXSP,2013-05-18 16:43:00,
2013-05-18 09:48:00,55.0,34.5,30.03,South,180,0.0,0.0,46,0.00,,,0.02,WUHU21623XXSP,2013-05-18 16:48:00,
2013-05-18 09:53:00,55.2,34.6,30.03,SE,135,0.0,0.0,46,0.00,,,0.02,WUHU21623XXSP,2013-05-18 16:53:00,
2013-05-18 09:58:00,55.4,34.8,30.03,SSW,202,0.0,0.0,46,0.00,,,0.02,WUHU21623XXSP,2013-05-18 16:58:00,
2013-05-18 10:03:00,55.8,36.1,30.03,NW,315,0.0,0.0,49,0.00,,,0.02,WUHU21623XXSP,2013-05-18 17:03:00,
2013-05-18 10:08:00,55.9,36.8,30.03,ESE,112,0.0,0.0,50,0.00,,,0.02,WUHU21623XXSP,2013-05-18 17:08:00,
2013-05-18 10:13:00,56.1,38.2,30.03,NNE,22,0.0,0.0,51,0.00,,,0.02,WUHU21623XXSP,2013-05-18 17:13:00,
2013-05-18 10:18:00,56.5,38.6,30.03,South,180,0.0,0.0,51,0.00,,,0.02,WUHU21623XXSP,2013-05-18 17:18:00,
2013-05-18 10:23:00,57.0,39.1,30.03,ESE,112,0.0,0.0,51,0.00,,,0.02,WUHU21623XXSP,2013-05-18 17:23:00,
2013-05-18 10:28:00,57.4,39.5,30.03,SSW,202,0.0,0.0,51,0.00,,,0.02,WUHU21623XXSP,2013-05-18 17:28:00,
2013-05-18 10:33:00,57.9,40.9,30.03,SSE,157,0.0,0.0,53,0.00,,,0.02,WUHU21623XXSP,2013-05-18 17:33:00,
2013-05-18 10:38:00,58.8,41.7,30.03,SE,135,0.0,0.0,53,0.00,,,0.02,WUHU21623XXSP,2013-05-18 17:38:00,
2013-05-18 10:43:00,58.8,42.2,30.03,WSW,247,2.0,2.0,54,0.00,,,0.02,WUHU21623XXSP,2013-05-18 17:43:00,
2013-05-18 10:48:00,59.2,43.0,30.03,SSE,157,3.4,3.4,55,0.00,,,0.02,WUHU21623XXSP,2013-05-18 17:48:00,
2013-05-18 10:53:00,59.9,43.3,30.03,ENE,67,0.0,3.4,56,0.00,,,0.02,WUHU21623XXSP,2013-05-18 17:53:00,
2013-05-18 10:58:00,59.9,44.1,30.03,NNW,337,0.0,0.9,56,0.00,,,0.02,WUHU21623XXSP,2013-05-18 17:58:00,
2013-05-18 11:03:00,59.4,44.1,30.03,NNE,22,0.0,0.9,57,0.00,,,0.02,WUHU21623XXSP,2013-05-18 18:03:00,
2013-05-18 11:08:00,58.8,43.6,30.03,South,180,0.0,0.0,57,0.00,,,0.02,WUHU21623XXSP,2013-05-18 18:08:00,
2013-05-18 11:13:00,58.1,42.9,30.03,SSE,157,0.0,0.0,57,0.00,,,0.02,WUHU21623XXSP,2013-05-18 18:13:00,
2013-05-18 11:18:00,57.9,42.3,30.03,SSE,157,0.0,0.0,56,0.00,,,0.02,WUHU21623XXSP,2013-05-18 18:18:00,
2013-05-18 11:23:00,58.3,42.2,30.03,South,180,0.0,0.0,55,0.00,,,0.02,WUHU21623XXSP,2013-05-18 18:23:00,
2013-05-18 11:28:00,58.8,42.5,30.03,SSW,202,0.0,0.0,55,0.00,,,0.02,WUHU21623XXSP,2013-05-18 18:28:00,
2013-05-18 11:33:00,59.2,43.0,30.04,WSW,247,0.0,0.0,55,0.00,,,0.02,WUHU21623XXSP,2013-05-18 18:33:00,
2013-05-18 11:38:00,59.4,43.6,30.04,SE,135,5.8,5.8,56,0.00,,,0.02,WUHU21623XXSP,2013-05-18 18:38:00,
2013-05-18 11:43:00,59.5,44.3,30.04,South,180,0.0,5.8,57,0.00,,,0.02,WUHU21623XXSP,2013-05-18 18:43:00,
2013-05-18 11:48:00,58.8,43.6,30.04,ESE,112,0.0,0.0,57,0.00,,,0.02,WUHU21623XXSP,2013-05-18 18:48:00,
2013-05-18 11:53:00,58.8,44.0,30.04,NE,45,0.0,0.0,58,0.00,,,0.02,WUHU21623XXSP,2013-05-18 18:53:00,
2013-05-18 11:58:00,58.3,43.3,30.04,NE,45,0.0,0.0,57,0.00,,,0.02,WUHU21623XXSP,2013-05-18 18:58:00,
2013-05-18 12:03:00,57.9,42.3,30.05,South,180,0.0,0.0,56,0.00,,,0.02,WUHU21623XXSP,2013-05-18 19:03:00,
2013-05-18 12:08:00,57.7,42.1,30.05,SSW,202,0.0,0.0,56,0.00,,,0.02,WUHU21623XXSP,2013-05-18 19:08:00,
2013-05-18 12:13:00,57.9,42.3,30.05,SSW,202,0.0,0.0,56,0.00,,,0.02,WUHU21623XXSP,2013-05-18 19:13:00,
2013-05-18 12:18:00,58.3,42.6,30.05,SSW,202,0.0,0.0,56,0.00,,,0.02,WUHU21623XXSP,2013-05-18 19:18:00,
2013-05-18 12:23:00,58.6,43.4,30.04,SW,225,0.0,0.0,57,0.00,,,0.02,WUHU21623XXSP,2013-05-18 19:23:00,
2013-05-18 12:28:00,58.8,43.1,30.05,SSW,202,0.0,0.0,56,0.00,,,0.02,WUHU21623XXSP,2013-05-18 19:28:00,
2013-05-18 12:33:00,58.8,43.6,30.05,East,90,0.0,0.0,57,0.00,,,0.02,WUHU21623XXSP,2013-05-18 19:33:00,
2013-05-18 12:38:00,59.4,43.4,30.05,ESE,112,0.0,0.0,56,0.00,,,0.02,WUHU21623XXSP,2013-05-18 19:38:00,
2013-05-18 12:43:00,59.5,44.3,30.06,ESE,112,0.0,0.0,57,0.00,,,0.02,WUHU21623XXSP,2013-05-18 19:43:00,
2013-05-18 12:48:00,59.5,44.3,30.05,SW,225,0.0,0.0,57,0.00,,,0.02,WUHU21623XXSP,2013-05-18 19:48:00,
2013-05-18 12:53:00,60.1,44.9,30.05,West,270,1.8,3.6,58,0.00,,,0.02,WUHU21623XXSP,2013-05-18 19:53:00,
2013-05-18 12:58:00,60.4,45.6,30.05,SSW,202,0.0,3.6,58,0.00,,,0.02,WUHU21623XXSP,2013-05-18 19:58:00,
2013-05-18 13:04:00,60.6,45.6,30.06,SSW,202,0.0,0.0,58,0.00,,,0.02,WUHU21623XXSP,2013-05-18 20:04:00,
2013-05-18 13:09:00,61.0,46.1,30.06,WSW,247,0.0,0.0,58,0.00,,,0.02,WUHU21623XXSP,2013-05-18 20:09:00,
2013-05-18 13:14:00,61.2,46.8,30.06,WSW,247,0.0,0.0,59,0.00,,,0.02,WUHU21623XXSP,2013-05-18 20:14:00,
2013-05-18 13:19:00,61.2,46.8,30.06,NE,45,0.0,0.0,59,0.00,,,0.02,WUHU21623XXSP,2013-05-18 20:19:00,
2013-05-18 13:24:00,61.2,46.8,30.06,WSW,247,4.3,4.3,59,0.00,,,0.02,WUHU21623XXSP,2013-05-18 20:24:00,
2013-05-18 13:29:00,61.0,46.6,30.06,SSW,202,0.0,4.3,59,0.00,,,0.02,WUHU21623XXSP,2013-05-18 20:29:00,
2013-05-18 13:34:00,60.6,46.3,30.06,SSE,157,1.1,1.1,59,0.00,,,0.02,WUHU21623XXSP,2013-05-18 20:34:00,
2013-05-18 13:39:00,60.6,46.3,30.06,SSE,157,0.0,1.1,59,0.00,,,0.02,WUHU21623XXSP,2013-05-18 20:39:00,
2013-05-18 13:44:00,60.6,46.3,30.06,SSE,157,0.0,0.0,59,0.00,,,0.02,WUHU21623XXSP,2013-05-18 20:44:00,
2013-05-18 13:49:00,60.4,46.1,30.07,SE,135,0.0,0.0,59,0.00,,,0.02,WUHU21623XXSP,2013-05-18 20:49:00,
2013-05-18 13:54:00,60.1,46.2,30.07,SE,135,0.0,0.0,60,0.00,,,0.02,WUHU21623XXSP,2013-05-18 20:54:00,
2013-05-18 13:59:00,59.9,46.0,30.07,SE,135,0.0,0.0,60,0.00,,,0.02,WUHU21623XXSP,2013-05-18 20:59:00,
2013-05-18 14:04:00,59.5,45.2,30.07,SE,135,0.0,0.0,59,0.00,,,0.02,WUHU21623XXSP,2013-05-18 21:04:00,
2013-05-18 14:09:00,59.5,45.2,30.07,SE,135,0.0,0.0,59,0.00,,,0.02,WUHU21623XXSP,2013-05-18 21:09:00,
2013-05-18 14:14:00,59.5,45.2,30.07,SE,135,0.0,0.0,59,0.00,,,0.02,WUHU21623XXSP,2013-05-18 21:14:00,
2013-05-18 14:19:00,59.7,45.9,30.07,SE,135,0.0,0.0,60,0.00,,,0.02,WUHU21623XXSP,2013-05-18 21:19:00,
2013-05-18 14:24:00,59.9,46.0,30.07,SE,135,0.0,0.0,60,0.00,,,0.02,WUHU21623XXSP,2013-05-18 21:24:00,
2013-05-18 14:29:00,60.1,46.2,30.07,SE,135,0.0,0.0,60,0.00,,,0.02,WUHU21623XXSP,2013-05-18 21:29:00,
2013-05-18 14:34:00,60.1,46.2,30.07,SSW,202,0.0,0.0,60,0.00,,,0.02,WUHU21623XXSP,2013-05-18 21:34:00,
2013-05-18 14:39:00,60.3,46.4,30.07,SSW,202,0.0,0.0,60,0.00,,,0.02,WUHU21623XXSP,2013-05-18 21:39:00,
2013-05-18 14:44:00,60.3,46.4,30.07,SSW,202,0.0,0.0,60,0.00,,,0.02,WUHU21623XXSP,2013-05-18 21:44:00,
2013-05-18 14:49:00,60.1,46.2,30.08,SSE,157,0.0,0.0,60,0.00,,,0.02,WUHU21623XXSP,2013-05-18 21:49:00,
2013-05-18 14:54:00,59.7,45.9,30.08,SSE,157,0.0,0.0,60,0.00,,,0.02,WUHU21623XXSP,2013-05-18 21:54:00,
2013-05-18 14:59:00,59.4,45.5,30.08,West,270,0.0,0.0,60,0.00,,,0.02,WUHU21623XXSP,2013-05-18 21:59:00,
2013-05-18 15:04:00,59.2,45.3,30.08,West,270,0.0,0.0,60,0.00,,,0.02,WUHU21623XXSP,2013-05-18 22:04:00,
2013-05-18 15:09:00,59.0,45.1,30.08,West,270,0.0,0.0,60,0.00,,,0.02,WUHU21623XXSP,2013-05-18 22:09:00,
2013-05-18 15:14:00,59.0,45.1,30.08,NNW,337,0.0,0.0,60,0.00,,,0.02,WUHU21623XXSP,2013-05-18 22:14:00,
2013-05-18 15:19:00,59.2,45.3,30.08,NNW,337,0.0,0.0,60,0.00,,,0.02,WUHU21623XXSP,2013-05-18 22:19:00,
2013-05-18 15:24:00,59.5,45.7,30.08,NNW,337,0.0,0.0,60,0.00,,,0.02,WUHU21623XXSP,2013-05-18 22:24:00,
2013-05-18 15:29:00,59.9,46.0,30.08,NNW,337,0.0,0.0,60,0.00,,,0.02,WUHU21623XXSP,2013-05-18 22:29:00,
2013-05-18 15:34:00,60.1,46.2,30.08,SE,135,0.0,0.0,60,0.00,,,0.02,WUHU21623XXSP,2013-05-18 22:34:00,
2013-05-18 15:39:00,60.4,46.6,30.08,SSE,157,0.0,0.0,60,0.00,,,0.02,WUHU21623XXSP,2013-05-18 22:39:00,
2013-05-18 15:44:00,60.4,46.6,30.08,SSE,157,0.0,0.0,60,0.00,,,0.02,WUHU21623XXSP,2013-05-18 22:44:00,
2013-05-18 15:49:00,60.1,46.2,30.08,SW,225,0.0,0.0,60,0.00,,,0.02,WUHU21623XXSP,2013-05-18 22:49:00,
2013-05-18 15:54:00,60.1,46.2,30.08,SSW,202,0.0,0.0,60,0.00,,,0.02,WUHU21623XXSP,2013-05-18 22:54:00,
2013-05-18 15:59:00,60.1,46.2,30.08,SW,225,0.0,0.0,60,0.00,,,0.02,WUHU21623XXSP,2013-05-18 22:59:00,
2013-05-18 16:04:00,60.1,46.2,30.08,WNW,292,0.0,0.0,60,0.00,,,0.02,WUHU21623XXSP,2013-05-18 23:04:00,
2013-05-18 16:09:00,60.4,46.6,30.09,SW,225,0.0,0.0,60,0.00,,,0.02,WUHU21623XXSP,2013-05-18 23:09:00,
2013-05-18 16:14:00,60.4,46.6,30.09,SE,135,0.0,3.8,60,0.00,,,0.02,WUHU21623XXSP,2013-05-18 23:14:00,
2013-05-18 16:19:00,60.4,46.6,30.09,SSE,157,0.0,3.8,60,0.00,,,0.02,WUHU21623XXSP,2013-05-18 23:19:00,
2013-05-18 16:24:00,60.4,46.6,30.09,SW,225,0.0,0.0,60,0.00,,,0.02,WUHU21623XXSP,2013-05-18 23:24:00,
2013-05-18 16:29:00,60.4,46.6,30.09,South,180,0.0,0.0,60,0.00,,,0.02,WUHU21623XXSP,2013-05-18 23:29:00,
2013-05-18 16:34:00,60.4,46.6,30.09,South,180,0.0,0.0,60,0.00,,,0.02,WUHU21623XXSP,2013-05-18 23:34:00,
2013-05-18 16:39:00,60.6,46.8,30.10,South,180,3.4,3.4,60,0.00,,,0.02,WUHU21623XXSP,2013-05-18 23:39:00,
2013-05-18 16:44:00,60.6,46.8,30.09,South,180,0.0,3.4,60,0.00,,,0.02,WUHU21623XXSP,2013-05-18 23:44:00,
2013-05-18 16:49:00,60.6,46.8,30.10,ENE,67,0.0,0.0,60,0.00,,,0.02,WUHU21623XXSP,2013-05-18 23:49:00,
2013-05-18 16:54:00,60.8,46.9,30.10,WSW,247,0.0,0.0,60,0.00,,,0.02,WUHU21623XXSP,2013-05-18 23:54:00,
2013-05-18 16:59:00,61.0,47.1,30.10,NNW,337,1.6,1.6,60,0.00,,,0.02,WUHU21623XXSP,2013-05-18 23:59:00,
2013-05-18 17:04:00,61.2,47.3,30.10,SW,225,0.0,1.6,60,0.00,,,0.02,WUHU21623XXSP,2013-05-19 00:04:00,
2013-05-18 17:09:00,61.3,47.4,30.09,South,180,2.2,2.2,60,0.00,,,0.02,WUHU21623XXSP,2013-05-19 00:09:00,
2013-05-18 17:14:00,61.5,47.6,30.10,SSW,202,4.7,4.7,60,0.00,,,0.02,WUHU21623XXSP,2013-05-19 00:14:00,
2013-05-18 17:19:00,61.7,47.8,30.09,WSW,247,1.3,4.7,60,0.00,,,0.02,WUHU21623XXSP,2013-05-19 00:19:00,
2013-05-18 17:24:00,61.5,47.6,30.10,South,180,4.7,4.7,60,0.00,,,0.02,WUHU21623XXSP,2013-05-19 00:24:00,
2013-05-18 17:29:00,61.9,47.9,30.10,South,180,0.0,4.7,60,0.00,,,0.02,WUHU21623XXSP,2013-05-19 00:29:00,
2013-05-18 17:34:00,61.5,47.6,30.10,South,180,0.0,5.1,60,0.00,,,0.02,WUHU21623XXSP,2013-05-19 00:34:00,
2013-05-18 17:39:00,61.3,47.4,30.10,SSE,157,0.0,5.1,60,0.00,,,0.02,WUHU21623XXSP,2013-05-19 00:39:00,
2013-05-18 17:44:00,61.3,47.4,30.10,SSE,157,0.0,0.0,60,0.00,,,0.02,WUHU21623XXSP,2013-05-19 00:44:00,
2013-05-18 17:49:00,61.5,47.6,30.10,SW,225,0.0,0.0,60,0.00,,,0.02,WUHU21623XXSP,2013-05-19 00:49:00,
2013-05-18 17:54:00,61.7,47.8,30.10,South,180,0.0,0.0,60,0.00,,,0.02,WUHU21623XXSP,2013-05-19 00:54:00,
2013-05-18 17:59:00,61.7,47.8,30.10,SSE,157,0.0,0.0,60,0.00,,,0.02,WUHU21623XXSP,2013-05-19 00:59:00,
2013-05-18 18:04:00,61.7,47.8,30.10,SSE,157,0.0,1.8,60,0.00,,,0.02,WUHU21623XXSP,2013-05-19 01:04:00,
2013-05-18 18:09:00,61.5,47.6,30.10,SE,135,0.0,1.8,60,0.00,,,0.02,WUHU21623XXSP,2013-05-19 01:09:00,
2013-05-18 18:14:00,61.5,47.6,30.10,SE,135,0.0,0.0,60,0.00,,,0.02,WUHU21623XXSP,2013-05-19 01:14:00,
2013-05-18 18:19:00,61.5,47.6,30.10,SE,135,0.0,0.0,60,0.00,,,0.02,WUHU21623XXSP,2013-05-19 01:19:00,
2013-05-18 18:24:00,61.5,47.6,30.10,SE,135,0.0,0.0,60,0.00,,,0.02,WUHU21623XXSP,2013-05-19 01:24:00,
2013-05-18 18:29:00,61.5,47.6,30.10,WNW,292,0.0,0.0,60,0.00,,,0.02,WUHU21623XXSP,2013-05-19 01:29:00,
2013-05-18 18:34:00,61.7,47.8,30.10,West,270,0.0,0.0,60,0.00,,,0.02,WUHU21623XXSP,2013-05-19 01:34:00,
2013-05-18 18:39:00,61.2,47.3,30.10,SSW,202,0.0,0.0,60,0.00,,,0.02,WUHU21623XXSP,2013-05-19 01:39:00,
2013-05-18 18:44:00,61.0,47.1,30.10,South,180,0.0,0.0,60,0.00,,,0.02,WUHU21623XXSP,2013-05-19 01:44:00,
2013-05-18 18:49:00,61.0,47.1,30.10,South,180,0.0,0.0,60,0.00,,,0.02,WUHU21623XXSP,2013-05-19 01:49:00,
2013-05-18 18:54:00,60.6,46.8,30.10,South,180,0.0,0.0,60,0.00,,,0.02,WUHU21623XXSP,2013-05-19 01:54:00,
2013-05-18 18:59:00,60.6,47.2,30.10,South,180,0.0,0.0,61,0.00,,,0.02,WUHU21623XXSP,2013-05-19 01:59:00,
2013-05-18 19:04:00,60.6,46.8,30.10,South,180,0.0,0.0,60,0.00,,,0.02,WUHU21623XXSP,2013-05-19 02:04:00,
2013-05-18 19:09:00,60.3,46.4,30.10,SSE,157,0.0,0.0,60,0.00,,,0.02,WUHU21623XXSP,2013-05-19 02:09:00,
2013-05-18 19:14:00,60.1,46.2,30.10,SSE,157,0.0,0.0,60,0.00,,,0.02,WUHU21623XXSP,2013-05-19 02:14:00,
2013-05-18 19:19:00,59.9,46.0,30.10,SSE,157,0.0,0.0,60,0.00,,,0.02,WUHU21623XXSP,2013-05-19 02:19:00,
2013-05-18 19:24:00,59.7,45.9,30.11,SSE,157,0.0,0.0,60,0.00,,,0.02,WUHU21623XXSP,2013-05-19 02:24:00,
2013-05-18 19:29:00,59.4,45.5,30.11,SSE,157,0.0,0.0,60,0.00,,,0.02,WUHU21623XXSP,2013-05-19 02:29:00,
2013-05-18 19:34:00,59.0,45.1,30.11,SSE,157,0.0,0.0,60,0.00,,,0.02,WUHU21623XXSP,2013-05-19 02:34:00,
2013-05-18 19:39:00,58.8,45.0,30.11,East,90,0.0,0.0,60,0.00,,,0.02,WUHU21623XXSP,2013-05-19 02:39:00,
2013-05-18 19:44:00,58.8,45.0,30.11,SSE,157,0.0,0.0,60,0.00,,,0.02,WUHU21623XXSP,2013-05-19 02:44:00,
2013-05-18 19:49:00,58.6,44.8,30.11,SSE,157,0.0,0.0,60,0.00,,,0.02,WUHU21623XXSP,2013-05-19 02:49:00,
2013-05-18 19:54:00,58.3,44.5,30.12,SSE,157,0.0,0.0,60,0.00,,,0.02,WUHU21623XXSP,2013-05-19 02:54:00,
2013-05-18 19:59:00,57.9,44.2,30.12,South,180,0.0,0.0,60,0.00,,,0.02,WUHU21623XXSP,2013-05-19 02:59:00,
2013-05-18 20:04:00,57.9,44.2,30.12,South,180,0.0,0.0,60,0.00,,,0.02,WUHU21623XXSP,2013-05-19 03:04:00,
2013-05-18 20:09:00,57.7,43.5,30.12,South,180,0.0,0.0,59,0.00,,,0.02,WUHU21623XXSP,2013-05-19 03:09:00,
2013-05-18 20:14:00,57.6,43.4,30.12,South,180,0.0,0.0,59,0.00,,,0.02,WUHU21623XXSP,2013-05-19 03:14:00,
2013-05-18 20:19:00,57.4,42.7,30.12,South,180,0.0,0.0,58,0.00,,,0.02,WUHU21623XXSP,2013-05-19 03:19:00,
2013-05-18 20:24:00,57.4,42.7,30.12,South,180,0.0,0.0,58,0.00,,,0.02,WUHU21623XXSP,2013-05-19 03:24:00,
2013-05-18 20:29:00,57.4,42.7,30.12,South,180,0.0,0.0,58,0.00,,,0.02,WUHU21623XXSP,2013-05-19 03:29:00,
2013-05-18 20:34:00,57.0,42.4,30.13,South,180,0.0,0.0,58,0.00,,,0.02,WUHU21623XXSP,2013-05-19 03:34:00,
2013-05-18 20:39:00,57.0,42.4,30.13,South,180,0.0,0.0,58,0.00,,,0.02,WUHU21623XXSP,2013-05-19 03:39:00,
2013-05-18 20:44:00,57.0,42.4,30.13,South,180,0.0,0.0,58,0.00,,,0.02,WUHU21623XXSP,2013-05-19 03:44:00,
2013-05-18 20:49:00,56.5,41.9,30.14,South,180,0.0,0.0,58,0.00,,,0.02,WUHU21623XXSP,2013-05-19 03:49:00,
2013-05-18 20:54:00,56.3,41.2,30.14,South,180,0.0,0.0,57,0.00,,,0.02,WUHU21623XXSP,2013-05-19 03:54:00,
2013-05-18 20:59:00,55.9,40.9,30.14,South,180,0.0,0.0,57,0.00,,,0.02,WUHU21623XXSP,2013-05-19 03:59:00,
2013-05-18 21:04:00,55.8,40.7,30.14,South,180,0.0,0.0,57,0.00,,,0.02,WUHU21623XXSP,2013-05-19 04:04:00,
2013-05-18 21:09:00,55.6,40.0,30.14,South,180,0.0,0.0,56,0.00,,,0.02,WUHU21623XXSP,2013-05-19 04:09:00,
2013-05-18 21:14:00,55.4,39.8,30.15,South,180,0.0,0.0,56,0.00,,,0.02,WUHU21623XXSP,2013-05-19 04:14:00,
2013-05-18 21:19:00,55.2,39.7,30.15,South,180,0.0,0.0,56,0.00,,,0.02,WUHU21623XXSP,2013-05-19 04:19:00,
2013-05-18 21:24:00,55.2,39.2,30.15,South,180,0.0,0.0,55,0.00,,,0.02,WUHU21623XXSP,2013-05-19 04:24:00,
2013-05-18 21:29:00,55.2,39.2,30.15,South,180,0.0,0.0,55,0.00,,,0.02,WUHU21623XXSP,2013-05-19 04:29:00,
2013-05-18 21:34:00,55.2,39.2,30.15,South,180,0.0,0.0,55,0.00,,,0.02,WUHU21623XXSP,2013-05-19 04:34:00,
2013-05-18 21:39:00,55.2,38.8,30.15,South,180,0.0,0.0,54,0.00,,,0.02,WUHU21623XXSP,2013-05-19 04:39:00,
2013-05-18 21:45:00,55.0,38.6,30.15,South,180,0.0,0.0,54,0.00,,,0.02,WUHU21623XXSP,2013-05-19 04:45:00,
2013-05-18 21:50:00,55.0,38.6,30.15,South,180,0.0,0.0,54,0.00,,,0.02,WUHU21623XXSP,2013-05-19 04:50:00,
2013-05-18 21:55:00,55.0,38.6,30.16,South,180,0.0,0.0,54,0.00,,,0.02,WUHU21623XXSP,2013-05-19 04:55:00,
2013-05-18 22:00:00,55.0,38.6,30.16,South,180,0.0,0.0,54,0.00,,,0.02,WUHU21623XXSP,2013-05-19 05:00:00,
2013-05-18 22:05:00,54.9,38.4,30.16,South,180,0.0,0.0,54,0.00,,,0.02,WUHU21623XXSP,2013-05-19 05:05:00,
2013-05-18 22:10:00,54.7,37.8,30.16,South,180,0.0,0.0,53,0.00,,,0.02,WUHU21623XXSP,2013-05-19 05:10:00,
2013-05-18 22:15:00,54.7,37.8,30.16,South,180,0.0,0.0,53,0.00,,,0.02,WUHU21623XXSP,2013-05-19 05:15:00,
2013-05-18 22:20:00,54.3,37.5,30.16,South,180,0.0,0.0,53,0.00,,,0.02,WUHU21623XXSP,2013-05-19 05:20:00,
2013-05-18 22:25:00,54.3,37.5,30.16,South,180,0.0,0.0,53,0.00,,,0.02,WUHU21623XXSP,2013-05-19 05:25:00,
2013-05-18 22:30:00,54.3,37.0,30.15,South,180,0.0,0.0,52,0.00,,,0.02,WUHU21623XXSP,2013-05-19 05:30:00,
2013-05-18 22:35:00,54.3,37.0,30.15,South,180,0.0,0.0,52,0.00,,,0.02,WUHU21623XXSP,2013-05-19 05:35:00,
2013-05-18 22:40:00,54.3,36.5,30.16,South,180,0.0,0.0,51,0.00,,,0.02,WUHU21623XXSP,2013-05-19 05:40:00,
2013-05-18 22:45:00,54.3,36.5,30.16,South,180,0.0,0.0,51,0.00,,,0.02,WUHU21623XXSP,2013-05-19 05:45:00,
2013-05-18 22:50:00,54.3,36.5,30.16,South,180,0.0,0.0,51,0.00,,,0.02,WUHU21623XXSP,2013-05-19 05:50:00,
2013-05-18 22:55:00,54.3,36.5,30.16,ENE,67,0.0,0.0,51,0.00,,,0.02,WUHU21623XXSP,2013-05-19 05:55:00,
2013-05-18 23:00:00,54.3,36.5,30.16,ENE,67,0.0,0.0,51,0.00,,,0.02,WUHU21623XXSP,2013-05-19 06:00:00,
2013-05-18 23:05:00,54.3,36.5,30.16,ENE,67,0.0,0.0,51,0.00,,,0.02,WUHU21623XXSP,2013-05-19 06:05:00,
2013-05-18 23:10:00,54.3,36.5,30.16,ENE,67,0.0,0.0,51,0.00,,,0.02,WUHU21623XXSP,2013-05-19 06:10:00,
2013-05-18 23:15:00,54.3,36.1,30.16,ENE,67,0.0,0.0,50,0.00,,,0.02,WUHU21623XXSP,2013-05-19 06:15:00,
2013-05-18 23:20:00,54.1,35.9,30.16,ENE,67,0.0,0.0,50,0.00,,,0.02,WUHU21623XXSP,2013-05-19 06:20:00,
2013-05-18 23:25:00,54.1,35.9,30.16,ENE,67,0.0,0.0,50,0.00,,,0.02,WUHU21623XXSP,2013-05-19 06:25:00,
2013-05-18 23:30:00,54.3,36.1,30.16,ENE,67,0.0,0.0,50,0.00,,,0.02,WUHU21623XXSP,2013-05-19 06:30:00,
2013-05-18 23:35:00,54.1,35.9,30.17,ENE,67,0.0,0.0,50,0.00,,,0.02,WUHU21623XXSP,2013-05-19 06:35:00,
2013-05-18 23:40:00,54.1,35.9,30.17,ENE,67,0.0,0.0,50,0.00,,,0.02,WUHU21623XXSP,2013-05-19 06:40:00,
2013-05-18 23:45:00,54.1,35.9,30.17,ENE,67,0.0,0.0,50,0.00,,,0.02,WUHU21623XXSP,2013-05-19 06:45:00,
2013-05-18 23:50:00,54.1,35.9,30.17,ENE,67,0.0,0.0,50,0.00,,,0.02,WUHU21623XXSP,2013-05-19 06:50:00,
2013-05-18 23:55:00,54.1,35.3,30.17,ENE,67,0.0,0.0,49,0.00,,,0.02,WUHU21623XXSP,2013-05-19 06:55:00,